Stations météo

Publicité
Charleville, France (7075): Température de l'air & dewpoint: 19.09.2018 17:00:00 - 25.09.2018 17:00:00 (CEST)Charleville, France (7075): Température de l'air 5cm: 19.09.2018 17:00:00 - 25.09.2018 17:00:00 (CEST)Charleville, France (7075): Température de l'air -20cm & Température de l'air -100cm: 19.09.2018 17:00:00 - 25.09.2018 17:00:00 (CEST)Charleville, France (7075): Vitesse du vent & gusts: 19.09.2018 17:00:00 - 25.09.2018 17:00:00 (CEST)Charleville, France (7075): Direction du vent: 19.09.2018 17:00:00 - 25.09.2018 17:00:00 (CEST)Charleville, France (7075): reduced air pressure: 19.09.2018 17:00:00 - 25.09.2018 17:00:00 (CEST)Charleville, France (7075): visibility: 19.09.2018 17:00:00 - 25.09.2018 17:00:00 (CEST)Charleville, France (7075): Ensoleillement: 19.09.2018 17:00:00 - 25.09.2018 17:00:00 (CEST)Charleville, France (7075): Quantités de précipitations: 19.09.2018 17:00:00 - 25.09.2018 17:00:00 (CEST)
Date & Time tt [°C] td [°C] tt 5cm [°C] tt -20cm [°C] tt -100cm [°C] ff [km/h] ff [knt] fx [km/h] fx [knt] dd ppp [hPa] vv [km] sd [min] rr [mm]
25.09.2018 17:00:00 16,3 2,7 19,4 14,4 16,4 17 9 28 15 E 1036,4 20 60 0,0
25.09.2018 16:00:00 16,4 5,0 19,3 14,3 16,5 16 9 32 17 ENE 1036,7 20 57 0,0
25.09.2018 15:00:00 16,3 5,6 20,7 14,2 16,5 13 7 34 19 NE 1037,6 20 58 0,0
25.09.2018 14:00:00 15,5 5,4 21,4 14,1 16,5 16 9 27 15 ENE 1038,1 20 60 0,0
25.09.2018 13:00:00 14,7 7,0 17,7 14,1 16,4 12 7 29 15 NE 1038,5 20 58 0,0
25.09.2018 12:00:00 13,2 4,9 17,3 14,1 16,5 16 9 27 15 E 1039,2 20 58 0,0
25.09.2018 11:00:00 11,9 6,2 15,8 14,2 16,5 13 7 22 12 ENE 1039,5 20 60 0,0
25.09.2018 10:00:00 7,6 6,1 7,0 14,3 16,5 2 1 6 3 NW 1039,4 20 60 0,0
25.09.2018 09:00:00 2,9 2,5 -2,0 14,4 16,5 3 1 5 3 NW 1039,6 20 60 0,0
25.09.2018 08:00:00 -0,6 -1,0 -3,5 14,6 16,5 1 0 4 2 NE 1039,3 0,3 5 0,0
25.09.2018 07:00:00 -0,1 -0,5 -3,1 14,7 16,5 1 1 4 2 WSW 1038,9 1,4 0 0,0
25.09.2018 06:00:00 0,8 0,4 -2,5 14,8 16,5 3 2 6 3 SW 1038,9 17 0 0,0
25.09.2018 05:00:00 1,0 0,6 -2,3 15,0 16,5 2 1 6 3 ESE 1038,9 1,7 0 0,0
25.09.2018 04:00:00 1,8 1,4 -1,3 15,1 16,5 4 2 10 5 WSW 1038,8 11 0 0,0
25.09.2018 03:00:00 2,3 1,7 -1,3 15,2 16,5 1 0 4 2 S 1039,1 12 0 0,0
25.09.2018 02:00:00 2,8 1,9 -0,3 15,3 16,5 4 2 7 4 SE 1039,1 0,2 0 0,0
25.09.2018 01:00:00 4,2 3,5 0,2 15,3 16,5 3 2 12 6 WSW 1039,0 20 0 0,0
25.09.2018 00:00:00 4,4 2,6 0,5 15,4 16,5 4 2 10 5 W 1038,7 16 0 0,0
24.09.2018 23:00:00 5,7 3,9 2,0 15,5 16,5 3 1 8 4 W 1038,2 20 0 0,0
24.09.2018 22:00:00 7,6 5,1 4,1 15,5 16,5 3 2 12 7 SW 1037,7 20 0 0,0
24.09.2018 21:00:00 10,2 6,2 6,5 15,5 16,5 6 4 11 6 NW 1037,0 20 0 0,0
24.09.2018 20:00:00 11,3 5,4 8,3 15,5 16,5 5 3 13 7 NNE 1036,3 20 10 0,0
24.09.2018 19:00:00 13,5 4,6 11,9 15,5 16,5 10 5 27 15 NNE 1035,4 20 60 0,0
24.09.2018 18:00:00 14,9 4,0 15,0 15,5 16,6 16 9 31 17 NNW 1035,1 20 57 0,0
24.09.2018 17:00:00 15,8 4,5 15,4 15,4 16,5 16 8 31 17 NW 1035,1 20 51 0,0
24.09.2018 16:00:00 15,5 4,8 14,4 15,3 16,5 16 9 29 16 NW 1035,1 20 34 0,0
24.09.2018 15:00:00 15,7 6,4 14,3 15,2 16,5 16 9 26 14 NW 1035,7 20 38 0,0
24.09.2018 14:00:00 14,4 6,2 13,6 15,2 16,5 10 5 24 13 N 1036,0 20 7 0,0
24.09.2018 13:00:00 13,5 6,1 14,1 15,2 16,5 12 7 26 14 NNW 1036,0 20 30 0,0
24.09.2018 12:00:00 14,3 6,6 16,1 15,2 16,5 12 6 26 14 N 1035,8 20 56 0,0
24.09.2018 11:00:00 13,1 7,7 17,4 15,3 16,5 13 7 20 11 NNW 1035,5 20 60 0,0
24.09.2018 10:00:00 9,8 7,7 11,6 15,4 16,5 8 4 11 6 W 1035,1 19 60 0,0
24.09.2018 09:00:00 7,2 6,9 4,1 15,5 16,6 7 4 10 6 NW 1034,8 10 60 0,0
24.09.2018 08:00:00 4,7 4,4 1,5 15,6 16,6 6 4 10 5 NW 1034,2 6 6 0,0
24.09.2018 07:00:00 4,7 4,3 3,1 15,7 16,6 10 5 13 7 NW 1033,3 6 0 0,0
24.09.2018 06:00:00 4,6 4,0 3,4 15,8 16,6 9 5 16 9 NW 1032,6 4,9 0 0,0
24.09.2018 05:00:00 6,3 5,7 4,9 15,9 16,6 9 5 16 9 WNW 1031,8 10 0 0,0
24.09.2018 04:00:00 7,0 6,1 5,2 16,0 16,6 12 7 21 11 NW 1030,7 17 0 0,0
24.09.2018 03:00:00 8,6 6,9 7,4 16,1 16,6 9 5 14 7 WNW 1029,9 20 0 0,0
24.09.2018 02:00:00 7,8 7,2 6,0 16,2 16,6 4 2 10 5 WSW 1028,8 20 0 0,0
24.09.2018 01:00:00 8,1 7,0 7,1 16,2 16,6 5 3 12 6 NW 1027,9 20 0 0,0
24.09.2018 00:00:00 7,9 6,4 7,1 16,3 16,6 7 4 15 8 WNW 1026,8 20 0 0,0
23.09.2018 23:00:00 8,8 6,6 7,8 16,4 16,6 8 4 16 9 W 1025,4 20 0 0,0
23.09.2018 22:00:00 9,2 6,6 8,4 16,5 16,6 16 9 31 17 NNW 1023,8 20 0 0,0
23.09.2018 21:00:00 10,4 7,5 10,1 16,5 16,6 18 10 35 19 NNW 1022,1 20 0 0,0
23.09.2018 20:00:00 11,3 8,7 10,9 16,5 16,6 21 12 36 20 NNW 1019,4 20 4 0,0
23.09.2018 19:00:00 11,9 8,6 11,6 16,5 16,6 25 13 38 21 NW 1017,5 20 5 0,0
23.09.2018 18:00:00 12,4 9,9 12,4 16,5 16,6 23 12 38 20 NW 1015,1 17 0 0,0
23.09.2018 17:00:00 13,0 10,5 12,3 16,4 16,6 20 11 42 23 NW 1013,0 20 0 0,0
23.09.2018 16:00:00 13,1 11,2 12,7 16,3 16,6 21 12 41 22 NW 1011,2 20 0 1,2
23.09.2018 15:00:00 14,2 12,9 14,2 16,2 16,6 26 14 - - NNW 1009,1 15 7 5,2
23.09.2018 14:00:00 20,4 17,6 19,5 16,1 16,6 27 15 76 41 SW 1007,1 14 0 0,2
23.09.2018 13:00:00 20,7 18,1 19,4 16,0 16,6 22 12 53 29 SW 1008,0 20 1 0,4
23.09.2018 12:00:00 20,0 18,0 19,0 16,0 16,6 23 12 46 25 SW 1009,2 20 0 0,6
23.09.2018 11:00:00 19,5 18,0 18,8 15,9 16,6 20 11 42 23 SW 1010,2 20 0 1,0
23.09.2018 10:00:00 19,2 17,9 18,4 15,9 16,6 23 12 53 28 WSW 1010,7 11 0 0,2
23.09.2018 09:00:00 18,9 17,7 18,2 15,8 16,6 21 11 41 22 SW 1010,6 10 0 0,5
23.09.2018 08:00:00 18,7 17,5 18,1 15,8 16,6 20 11 48 26 WSW 1010,9 9 0 0,6
23.09.2018 07:00:00 18,7 17,5 17,8 15,8 16,6 22 12 46 25 SW 1011,0 7 0 0,6
23.09.2018 06:00:00 18,4 17,4 16,4 15,9 16,6 23 12 45 24 SW 1011,2 11 0 0,2
23.09.2018 05:00:00 16,4 16,1 13,3 15,9 16,6 8 4 27 15 SW 1011,9 8 0 0,4
23.09.2018 04:00:00 13,2 12,9 12,4 15,9 16,6 9 5 21 11 E 1012,9 3,7 0 1,0
23.09.2018 03:00:00 12,3 11,8 11,7 16,0 16,6 13 7 19 10 E 1013,9 4,2 0 1,2
23.09.2018 02:00:00 11,5 11,0 11,2 16,0 16,7 14 7 21 12 E 1014,8 3,2 0 1,0
23.09.2018 01:00:00 11,1 10,6 11,0 16,0 16,6 13 7 25 14 ESE 1015,7 5 0 0,6
23.09.2018 00:00:00 11,0 10,4 10,9 16,0 16,6 14 7 24 13 ESE 1016,8 9 0 0,2
22.09.2018 23:00:00 10,9 10,3 10,8 16,1 16,7 13 7 21 11 ESE 1017,8 9 0 0,4
22.09.2018 22:00:00 11,1 10,5 10,9 16,1 16,6 9 5 11 6 E 1018,9 4,8 0 1,2
22.09.2018 21:00:00 11,3 10,4 10,9 16,1 16,7 4 2 7 4 S 1019,8 8 0 0,0
22.09.2018 20:00:00 11,7 9,9 11,0 16,1 16,7 4 2 19 10 NE 1019,5 20 0 0,4
22.09.2018 19:00:00 13,2 8,9 11,3 16,0 16,6 8 4 20 11 WSW 1019,8 19 0 0,0
22.09.2018 18:00:00 13,6 10,0 11,7 16,0 16,7 4 2 13 7 SW 1020,1 19 0 1,0
22.09.2018 17:00:00 14,8 8,3 14,0 15,9 16,6 7 4 25 14 SW 1020,4 20 0 0,0
22.09.2018 16:00:00 16,7 5,9 17,4 15,9 16,7 12 6 34 19 WSW 1020,9 20 0 0,0
22.09.2018 15:00:00 16,8 5,7 17,4 15,8 16,7 19 10 34 19 SW 1021,5 20 0 0,0
22.09.2018 14:00:00 16,5 6,3 17,8 15,7 16,6 16 9 34 18 WSW 1021,9 20 19 0,0
22.09.2018 13:00:00 16,5 7,7 19,5 15,7 16,7 13 7 25 13 SW 1022,0 20 42 0,0
22.09.2018 12:00:00 15,5 8,2 17,5 15,6 16,6 12 7 24 13 SSW 1022,6 20 49 0,0
22.09.2018 11:00:00 13,5 7,3 16,8 15,7 16,6 9 5 18 10 SW 1023,4 20 47 0,0
22.09.2018 10:00:00 11,9 8,0 11,5 15,8 16,7 7 4 11 6 E 1023,5 20 22 0,0
22.09.2018 09:00:00 9,8 7,4 6,9 15,9 16,6 4 2 8 5 ESE 1023,2 20 12 0,0
22.09.2018 08:00:00 7,1 6,4 4,3 16,0 16,7 6 3 8 5 E 1023,5 20 0 0,0
22.09.2018 07:00:00 7,4 6,0 5,5 16,0 16,7 1 1 4 2 NW 1023,6 20 0 0,0
22.09.2018 06:00:00 7,6 5,9 6,0 16,1 16,7 1 1 6 4 SSE 1022,7 20 0 0,0
22.09.2018 05:00:00 7,3 5,9 5,7 16,2 16,6 5 3 14 8 E 1022,5 20 0 0,0
22.09.2018 04:00:00 9,1 5,3 7,1 16,3 16,7 6 3 17 9 NW 1022,5 20 0 0,0
22.09.2018 03:00:00 9,5 5,7 6,1 16,4 16,6 10 5 13 7 NNW 1022,2 20 0 0,0
22.09.2018 02:00:00 10,1 5,3 8,1 16,4 16,6 5 3 23 12 NNW 1022,2 20 0 0,0
22.09.2018 01:00:00 11,7 5,6 7,2 16,5 16,7 8 4 21 12 WSW 1021,5 20 0 0,0
22.09.2018 00:00:00 11,7 4,7 9,5 16,6 16,7 8 4 29 16 WSW 1021,2 20 0 0,0
21.09.2018 23:00:00 12,5 4,7 10,8 16,7 16,7 15 8 27 15 SW 1020,4 20 0 0,0
21.09.2018 22:00:00 12,9 4,3 10,6 16,8 16,7 13 7 24 13 SW 1019,8 20 0 0,0
21.09.2018 21:00:00 13,4 4,0 11,1 16,9 16,7 11 6 24 13 W 1019,1 20 0 0,0
21.09.2018 20:00:00 14,1 4,9 11,9 16,9 16,7 10 5 31 17 WSW 1017,6 19 16 0,0
21.09.2018 19:00:00 15,4 4,7 14,5 16,9 16,7 24 13 47 26 W 1016,6 20 52 0,0
21.09.2018 18:00:00 15,9 4,0 16,1 16,9 16,7 29 16 56 30 W 1016,1 20 34 0,0
21.09.2018 17:00:00 16,8 4,1 17,8 16,9 16,7 29 15 55 30 W 1015,4 20 43 0,0
21.09.2018 16:00:00 17,5 5,7 18,0 16,9 16,7 34 18 59 32 WNW 1014,8 20 39 0,0
21.09.2018 15:00:00 17,1 6,6 17,9 16,9 16,7 24 13 56 30 W 1013,7 20 24 0,0
21.09.2018 14:00:00 16,9 7,8 16,2 16,9 16,7 29 16 54 29 W 1012,7 20 28 0,0
21.09.2018 13:00:00 15,7 9,8 15,5 16,9 16,7 32 17 53 29 WNW 1011,8 20 6 0,0
21.09.2018 12:00:00 15,3 11,3 13,7 16,9 16,6 18 10 34 19 WSW 1010,9 20 1 0,0
21.09.2018 11:00:00 13,7 10,3 12,8 17,0 16,7 20 11 50 27 W 1010,6 20 0 1,0
21.09.2018 10:00:00 15,8 14,8 15,2 17,0 16,7 13 7 32 18 SW 1008,8 6 0 4,0
21.09.2018 09:00:00 17,5 12,8 15,4 17,0 16,6 13 7 32 17 S 1007,8 20 0 0,0
21.09.2018 08:00:00 17,9 11,9 17,3 17,0 16,7 14 7 40 22 SSW 1007,9 20 0 0,0
21.09.2018 07:00:00 18,1 11,4 16,9 17,1 16,7 16 8 35 19 SSW 1008,0 20 0 0,0
21.09.2018 06:00:00 18,1 11,4 16,6 17,1 16,7 13 7 27 15 S 1007,9 20 0 0,0
21.09.2018 05:00:00 18,1 12,1 14,9 17,2 16,7 10 5 19 10 S 1008,3 20 0 0,0
21.09.2018 04:00:00 17,0 11,7 12,6 17,3 16,7 9 5 24 13 SSE 1009,3 20 0 0,0
21.09.2018 03:00:00 13,4 11,8 10,6 17,4 16,7 3 2 8 5 ESE 1010,4 19 0 0,0
21.09.2018 02:00:00 12,2 11,4 8,4 17,4 16,6 2 1 8 5 WNW 1010,9 20 0 0,0
21.09.2018 01:00:00 11,9 10,6 8,6 17,5 16,7 3 2 5 3 E 1011,5 20 0 0,0
21.09.2018 00:00:00 12,8 11,5 9,2 17,6 16,7 4 2 11 6 SSE 1012,2 20 0 0,0
20.09.2018 23:00:00 12,4 11,0 10,3 17,6 16,7 5 3 9 5 SE 1012,6 20 0 0,0
20.09.2018 22:00:00 14,4 12,1 11,6 17,6 16,7 4 2 5 3 E 1013,2 20 0 0,0
20.09.2018 21:00:00 15,1 11,9 11,3 17,6 16,7 1 1 9 5 NE 1013,9 20 0 0,0
20.09.2018 20:00:00 18,2 12,0 14,2 17,5 16,7 6 3 21 12 ESE 1014,0 15 5 0,0
20.09.2018 19:00:00 22,5 12,1 21,5 17,4 16,7 11 6 32 17 S 1014,3 20 28 0,0
20.09.2018 18:00:00 23,6 12,6 23,4 17,2 16,7 16 8 34 18 S 1014,9 20 42 0,0
20.09.2018 17:00:00 24,4 13,0 26,8 17,1 16,7 19 10 37 20 S 1015,5 19 60 0,0
20.09.2018 16:00:00 24,5 12,8 27,2 16,9 16,7 16 9 36 19 S 1016,4 20 60 0,0
20.09.2018 15:00:00 24,3 13,5 28,7 16,8 16,7 14 8 32 18 SSW 1017,1 20 60 0,0
20.09.2018 14:00:00 23,4 13,0 26,4 16,7 16,7 18 10 37 20 SSW 1018,1 20 50 0,0
20.09.2018 13:00:00 22,7 13,5 23,9 16,6 16,7 12 6 29 16 SSW 1018,6 20 46 0,0
20.09.2018 12:00:00 20,5 13,5 23,6 16,6 16,7 14 8 31 17 SSW 1019,2 20 55 0,0
20.09.2018 11:00:00 20,0 13,7 18,8 16,7 16,7 10 5 18 10 SSW 1019,5 20 45 0,0
20.09.2018 10:00:00 15,2 13,7 13,6 16,8 16,7 5 3 9 5 ESE 1019,9 18 5 0,0
20.09.2018 09:00:00 12,1 11,8 9,8 16,9 16,7 1 0 4 2 NNW 1020,0 17 5 0,0
20.09.2018 08:00:00 9,1 8,8 5,4 17,0 16,7 1 1 5 3 WNW 1020,3 20 0 0,0
20.09.2018 07:00:00 7,4 7,0 4,8 17,1 16,7 1 0 4 2 E 1020,1 0,3 0 0,0
20.09.2018 06:00:00 8,0 7,6 5,3 17,2 16,7 2 1 6 3 WNW 1020,3 20 0 0,0
20.09.2018 05:00:00 8,3 7,9 5,2 17,3 16,7 1 1 3 1 SSE 1020,0 0,7 0 0,0
20.09.2018 04:00:00 8,8 8,2 5,4 17,4 16,7 0 0 3 1 NNW 1020,0 0,4 0 0,0
20.09.2018 03:00:00 9,8 9,2 5,9 17,5 16,7 1 1 2 1 W 1020,0 17 0 0,0
20.09.2018 02:00:00 10,1 9,2 7,5 17,5 16,7 3 1 3 2 SE 1020,0 9 0 0,0
20.09.2018 01:00:00 11,0 9,9 8,1 17,6 16,7 1 1 4 2 SSE 1020,3 1,7 0 0,0
20.09.2018 00:00:00 12,0 11,1 8,9 17,7 16,7 1 1 3 2 SE 1020,5 14 0 0,0
19.09.2018 23:00:00 12,1 10,5 9,5 17,7 16,7 0 0 7 4 S 1020,4 19 0 0,0
19.09.2018 22:00:00 13,4 10,9 10,3 17,7 16,7 3 2 5 3 ESE 1020,0 20 0 0,0
19.09.2018 21:00:00 15,8 11,8 12,2 17,7 16,7 4 2 14 7 E 1019,5 20 0 0,0
19.09.2018 20:00:00 21,4 12,3 16,4 17,6 16,7 4 2 24 13 WSW 1018,9 20 12 0,0
19.09.2018 19:00:00 23,7 12,7 22,6 17,5 16,7 12 7 37 20 WSW 1018,4 20 60 0,0
19.09.2018 18:00:00 24,6 12,9 25,4 17,3 16,7 17 9 35 19 SW 1018,1 20 60 0,0
19.09.2018 17:00:00 25,5 13,4 28,1 17,2 16,7 16 8 41 22 SSW 1018,0 20 60 0,0

tt = Température de l'air
td = dewpoint
tt 5cm = Température de l'air 5cm
tt -20cm = Température de l'air -20cm
tt -100cm = Température de l'air -100cm
ff = Vitesse du vent
fx = gusts
dd = Direction du vent
ppp = reduced air pressure
vv = visibility
sd = Ensoleillement
rr = Quantités de précipitations

stations d'obs. à proximité